User: anonymous   Login
Location: Unspecified
(0.0000°N, 0.0000°E)
Time: 19:23:15
(UTC+00:00)
Language:

Kosmos-2218 - Orbit

View from above orbital plane
View from above orbital plane
View from above satellite
View from above satellite

Ground track
Ground track

The orbit data is extracted from the following two-line orbital elements,

1 22207U 92073A   19341.49418326  .00000014  00000-0 -19089-5 0  9997
2 22207  82.9213 100.5238 0033493 142.7613 266.0502 13.72878236358122
Epoch (UTC): 07 December 2019 11:51:37
Eccentricity: 0.0033493
inclination: 82.9213°
perigee height: 964 km
apogee height: 1014 km
right ascension of ascending node: 100.5238°
argument of perigee: 142.7613°
revolutions per day: 13.72878236
mean anomaly at epoch: 266.0502°
orbit number at epoch: 35812

The dashed part of the orbit path shows where the satellite is in the earth's shadow,  

DLR